Regional Weather Roundup
Issued by NWS Lake Charles, LA

Home | Current Version | Previous Version | Text Only | Print | Product List | Glossary On
Versions: 1 2 3 4 5 6 7 8 9 10 11 12 13 14 15 16 17 18 19 20 21 22 23 24 25 26 27 28 29 30 31 32 33 34 35 36 37 38 39 40 41 42 43 44 45 46 47 48 49 50
000
ASUS44 KLCH 221610
RWRLCH
RWRLCH
REGIONAL WEATHER ROUNDUP
NATIONAL WEATHER SERVICE LAKE CHARLES LA
1100 AM CDT TUE JUL 22 2014

Note: "fair" indicates few or no clouds below 12,000 feet with no
significant weather and/or obstructions to visibility.


ACROSS SOUTHEAST TEXAS

CITY           SKY/WX    TMP DP  RH WIND       PRES   REMARKS
BEAUMONT       PTSUNNY   86  77  74 W7        30.05S
BEAUMONT CITY  PTSUNNY   85  77  77 NW8       30.06S
ORANGE         MOSUNNY   85  75  70 CALM      30.07S
JASPER         PTSUNNY   82  71  68 CALM      30.09S
$$

ACROSS CENTRAL LOUISIANA

CITY           SKY/WX    TMP DP  RH WIND       PRES   REMARKS
LEESVILLE      MOSUNNY   84  68  58 CALM      30.07S
FULLERTON        N/A     86  69  56 CALM      30.05R
ALEXANDRIA INT LGT RAIN  85  70  60 VRB3      30.05R
ESLER FIELD    SUNNY     88  69  53 NE6       30.06R
DERIDDER       PTSUNNY   82  71  69 CALM      30.09S
OAKDALE        SUNNY     84  71  65 CALM      30.06S
OPELOUSAS        N/A     84  71  65 CALM      30.05S
$$

ACROSS SOUTHWEST AND SOUTH CENTRAL LOUISIANA

CITY           SKY/WX    TMP DP  RH WIND       PRES   REMARKS
SULPHUR        SUNNY     86  73  64 NE3       30.06S
LAKE CHARLES   SUNNY     85  72  65 NE5       30.05S
CHENNAULT INT  SUNNY     84  72  65 CALM      30.06S
CAMERON PHI    MOSUNNY   84  77  79 CALM      30.05S
DEQUINCY         N/A     84  71  66 CALM      30.06F
JENNINGS         N/A     83  72  68 N6        30.05S
LAFAYETTE      MOSUNNY   86  71  60 N6        30.05S
NEW IBERIA     SUNNY     87  73  62 CALM      30.05R
ABBEVILLE        N/A     84  72  67 NE5       30.05S
PATTERSON      SUNNY     88  79  74 CALM      30.07F HX 102
SALT POINT       N/A     87  78  74 CALM      30.03S HX 100
$$

SELECTED SITES ACROSS THE REGION

CITY           SKY/WX    TMP DP  RH WIND       PRES   REMARKS
HOUSTON BUSH   MOSUNNY   86  75  69 CALM      30.06S
HOUSTON HOBBY  MOSUNNY   87  75  67 VRB5      30.05S
GALVESTON      MOSUNNY   88  77  69 NW5       30.06S HX 100
COLLEGE STAT   MOSUNNY   84  74  71 SW3       30.07R
CONROE         PTSUNNY   85  75  72 CALM      30.07F
HUNTSVILLE     PTSUNNY   85  74  69 W3        30.07F
LUFKIN         SUNNY     88  73  61 SE6       30.07S
SHREVEPORT     MOSUNNY   85  68  56 CALM      30.08S
MONROE         SUNNY     86  69  56 NE7       30.08S
NATCHEZ MS     SUNNY     84  72  65 E6        30.07S
BATON ROUGE    MOSUNNY   86  69  56 NE5       30.05R
N.O. INTL ARPT PTSUNNY   88  76  67 NE6       30.03S
SLIDELL        MOSUNNY   87  70  56 VRB3      30.03S
$$

MARINE REPORTS

STATION/POSITION TIME  TEMP    WIND        PRES    VSBY  WAVE
                       AIR SEA DIR/SP/G                  HT/PER
                 (UTC) (F)     (DEG/KT/KT) (MB)    (MI)  (FT/S)
BUOY 30 S HIGH I NOT AVBL
SEA RIM ST PARK  1600   85     310/  8/ 11 1018.0F
PORT ARTHUR      1600      86  290/  4/  7 1017.7F
SABINE PASS N    1600   86 85  330/  8/ 11 1017.7F
TEXAS POINT      1600   83 85  340/ 10/ 12 1017.8F
CALCASIEU PASS   1600   83 86   20/  2/  3 1018.6S
LK CHARLES BEACH 1600   86 81              1018.4F
MARSH ISLAND     1500   84      20/  3/  4   N/A
FRESH WATER LOCK 1600   84 87  360/  2/  3 1017.3R
AMERADA PASS     1600   84 83  280/  5/  5 1017.1S
$$


USA.gov is the U.S. government's official web portal to all federal, state and local government web resources and services.